Temp
20 20 19 20 22 25 33 32 33 32 31 31 31 31 30 29 24 23 26 23 21 19 21 20 20 20 19 19 19 19 19 19 18 18 18 18 18 18 18 18 18 18 17 18 18 18 18 18 18
20 21 21 22 24 32 32 33 31 32 32 32 31 31 31 29 27 26 25 23 21 19 20 20 20 20 20 20 19 19 19 19 18 18 18 18 18 18 18 18 18 18 18 17 18 17 17 18 18
21 22 23 25 32 33 32 33 33 33 32 32 32 30 29 28 27 26 24 23 21 19 19 21 20 20 20 20 20 19 19 19 19 19 19 18 18 18 18 18 18 17 18 17 17 17 18 18 18
21 23 24 26 31 35 34 34 35 34 33 32 32 30 28 28 27 25 25 24 22 21 20 21 21 21 20 20 19 19 19 19 18 18 19 19 18 18 18 18 18 18 18 18 18 17 18 18 18
23 26 26 32 33 36 35 35 35 34 33 32 31 29 28 27 26 25 25 24 23 22 21 21 21 20 20 20 19 19 19 18 18 18 18 18 18 18 18 18 18 18 18 17 17 18 18 17 18
26 22 18 27 33 36 36 36 35 35 34 32 32 30 28 26 25 25 25 25 24 23 22 22 21 20 20 20 20 19 19 19 18 18 18 18 18 18 18 18 18 18 19 18 17 17 17 18 18
28 18 19 20 30 35 36 36 36 36 35 33 32 30 27 27 25 25 25 25 24 22 22 22 21 20 20 20 20 20 19 19 19 18 18 18 18 18 18 18 18 18 18 17 17 18 18 19 19
29 31 20 21 24 30 37 36 36 35 34 33 33 31 28 27 26 25 25 25 23 21 21 22 20 20 20 20 19 19 19 19 19 18 19 18 18 19 18 18 18 18 18 17 17 18 18 18 18
30 31 20 19 24 25 35 37 36 35 34 34 33 32 29 27 26 25 24 25 25 22 20 20 18 18 18 19 19 19 18 18 18 18 19 18 19 19 19 18 18 18 18 18 18 18 18 18 18
33 32 21 22 22 20 32 36 36 37 35 33 33 31 29 27 26 25 24 24 24 24 22 20 20 19 18 17 18 19 18 18 19 18 19 19 18 18 18 18 18 18 18 18 17 18 18 18 19
33 33 35 27 24 30 36 36 36 36 36 31 22 30 28 27 26 25 25 24 24 24 24 22 21 20 19 19 19 19 17 18 18 18 19 18 18 18 18 18 18 19 18 18 18 17 18 19 18
33 34 35 35 35 35 36 35 36 36 36 32 30 27 29 28 27 26 25 25 24 24 24 23 22 20 20 19 19 19 19 18 19 19 19 18 17 18 18 18 18 18 18 17 18 19 19 19 18
34 35 35 34 35 35 35 35 35 35 36 36 31 29 29 28 27 27 26 25 24 24 23 23 22 21 20 20 20 20 20 20 20 19 19 19 19 19 19 19 18 19 18 18 17 18 18 19 19
33 33 34 34 34 34 34 35 35 35 36 36 35 32 31 29 28 28 26 26 25 24 23 23 22 21 21 20 20 20 20 20 20 19 20 19 19 19 20 19 18 18 18 18 18 18 18 19 19
32 32 33 34 34 35 35 34 35 35 36 36 35 34 32 30 29 28 27 26 25 24 23 23 22 21 20 20 20 20 20 20 19 18 19 19 20 19 19 19 19 19 19 18 18 18 18 19 19
31 32 31 33 34 35 35 33 36 36 36 36 35 34 33 32 31 29 28 27 26 24 23 23 22 21 20 20 20 20 20 20 20 20 19 18 19 19 19 19 18 18 18 18 18 19 19 18 19
31 30 31 32 35 35 35 34 37 36 36 35 34 35 34 33 32 30 28 27 26 25 23 22 22 21 21 20 19 19 19 20 20 20 20 19 20 19 19 19 18 18 18 18 18 19 18 18 19
30 31 32 32 34 35 35 35 36 36 36 36 36 35 35 35 33 31 29 28 27 25 24 22 21 21 20 20 19 19 19 19 19 20 20 20 19 19 19 18 18 18 18 18 19 19 19 19 19
31 31 31 32 34 33 33 34 35 36 36 36 36 36 35 35 35 32 30 29 27 25 24 23 22 21 20 20 19 19 19 19 19 20 20 20 20 20 18 19 18 19 20 18 19 19 19 19 19
31 31 31 32 33 33 33 32 34 35 35 35 35 35 35 35 35 34 30 29 27 25 24 23 22 21 20 20 21 19 19 19 19 20 20 20 20 20 19 19 19 18 18 18 18 17 18 19 19
31 31 31 31 32 33 32 31 33 34 35 34 34 35 35 34 34 34 30 29 27 26 25 24 23 22 21 20 20 20 20 20 20 20 20 20 20 20 19 19 19 19 18 19 19 18 18 18 18
30 33 32 31 31 29 32 30 32 33 34 35 35 35 35 35 34 34 30 29 28 26 25 24 23 22 21 21 20 20 20 20 21 21 20 21 20 20 20 19 19 19 19 18 19 19 19 19 19
30 32 31 31 30 30 30 30 31 31 31 32 30 32 35 35 35 35 30 29 28 26 25 24 24 22 20 22 20 21 21 21 21 21 21 21 20 20 20 19 19 18 19 19 19 19 19 19 19
32 31 30 31 30 29 30 28 28 28 27 29 30 31 32 35 35 35 31 29 28 27 25 23 24 22 20 22 21 21 21 21 21 22 22 21 21 21 20 19 18 17 17 18 18 19 19 19 18
31 30 28 28 29 29 31 29 29 29 30 30 29 29 31 34 35 35 31 29 28 27 26 23 23 22 20 21 21 21 21 22 22 22 22 21 21 21 20 19 19 19 19 18 18 19 19 19 18
30 30 28 26 27 28 30 27 29 31 30 29 29 30 31 33 32 34 30 29 28 27 26 25 23 23 21 20 21 22 21 22 22 21 21 21 22 20 20 18 19 19 18 18 18 19 18 18 19
30 29 31 29 29 29 29 28 29 30 30 30 30 29 24 22 31 31 31 30 29 27 27 26 24 22 22 21 21 22 21 22 22 21 21 22 21 20 20 19 19 19 19 19 19 19 18 18 18
31 31 29 29 26 26 28 25 28 27 27 29 28 23 19 23 22 22 30 30 29 28 27 26 25 23 23 22 21 22 22 23 21 21 21 21 21 21 21 20 19 19 18 18 19 19 18 18 18
30 29 29 27 26 25 26 27 24 24 24 20 15 13 14 22 19 20 25 28 30 30 28 27 25 24 22 22 21 21 23 21 21 21 21 21 21 22 21 20 19 18 19 18 18 18 18 18 18
30 26 27 25 22 25 24 25 25 22 22 20 16 14 15 18 19 22 21 24 26 29 29 27 26 24 23 22 21 21 20 21 21 21 21 21 21 21 21 20 19 19 18 18 18 18 17 18 18
Height
1494 1495 1495 1496 1497 1478 1458 1461 1454 1460 1461 1462 1464 1463 1467 1470 1485 1503 1494 1495 1496 1502 1505 1510 1514 1517 1520 1523 1526 1529 1531 1533 1536 1539 1541 1542 1545 1545 1547 1548 1549 1551 1552 1553 1555 1557 1558 1559 1560
1497 1498 1501 1496 1491 1463 1464 1455 1461 1460 1460 1461 1464 1463 1467 1475 1480 1486 1494 1497 1499 1503 1506 1510 1514 1518 1521 1524 1526 1528 1531 1534 1537 1539 1541 1543 1544 1546 1548 1549 1551 1552 1554 1554 1556 1558 1559 1561 1562
1496 1496 1497 1485 1456 1462 1465 1453 1453 1456 1460 1460 1462 1469 1474 1481 1484 1489 1495 1498 1501 1505 1508 1510 1514 1518 1521 1524 1526 1529 1532 1534 1537 1539 1541 1542 1545 1547 1549 1550 1552 1553 1554 1556 1557 1559 1560 1562 1563
1491 1489 1486 1478 1464 1446 1452 1450 1448 1453 1457 1462 1461 1471 1479 1482 1485 1490 1497 1500 1503 1507 1510 1512 1515 1519 1522 1524 1528 1530 1532 1534 1537 1539 1542 1543 1545 1547 1549 1550 1552 1553 1555 1557 1559 1560 1561 1563 1564
1493 1497 1486 1461 1446 1436 1442 1448 1444 1450 1457 1461 1466 1476 1481 1485 1489 1493 1497 1501 1504 1507 1509 1513 1517 1520 1523 1525 1528 1531 1533 1535 1537 1539 1541 1542 1545 1547 1549 1551 1553 1554 1556 1558 1559 1561 1562 1564 1566
1496 1499 1522 1487 1449 1432 1436 1440 1441 1444 1451 1459 1462 1471 1481 1487 1490 1495 1499 1502 1502 1504 1509 1514 1517 1520 1524 1527 1529 1531 1533 1536 1538 1539 1540 1542 1545 1547 1549 1551 1553 1555 1556 1558 1560 1562 1563 1565 1567
1493 1514 1512 1514 1472 1445 1438 1436 1439 1440 1447 1455 1460 1467 1480 1486 1491 1494 1500 1503 1502 1505 1507 1512 1517 1520 1523 1526 1529 1532 1534 1536 1537 1539 1541 1543 1544 1547 1549 1551 1553 1555 1557 1559 1561 1562 1564 1566 1567
1484 1479 1513 1504 1498 1469 1438 1438 1439 1442 1449 1454 1457 1462 1474 1481 1488 1493 1498 1503 1504 1505 1506 1511 1515 1519 1522 1525 1529 1531 1533 1535 1537 1539 1541 1543 1544 1546 1548 1550 1553 1555 1557 1559 1561 1563 1565 1566 1568
1478 1478 1524 1520 1489 1476 1449 1440 1440 1441 1445 1451 1459 1463 1468 1473 1483 1492 1496 1501 1506 1504 1507 1509 1515 1519 1522 1525 1527 1530 1533 1535 1537 1539 1541 1542 1543 1545 1548 1550 1553 1555 1557 1559 1561 1563 1565 1567 1569
1472 1469 1498 1479 1504 1492 1448 1442 1442 1438 1441 1450 1461 1467 1471 1469 1476 1485 1493 1496 1502 1506 1507 1510 1513 1518 1521 1524 1526 1529 1531 1534 1536 1538 1539 1540 1540 1543 1547 1550 1553 1554 1556 1558 1560 1562 1565 1567 1569
1465 1464 1455 1472 1476 1450 1444 1444 1443 1440 1441 1447 1474 1481 1476 1474 1472 1478 1487 1494 1497 1504 1508 1510 1511 1515 1520 1525 1526 1528 1531 1533 1536 1537 1537 1538 1540 1545 1545 1549 1551 1553 1555 1556 1558 1561 1563 1565 1567
1463 1458 1457 1455 1454 1453 1448 1445 1442 1443 1441 1446 1442 1467 1472 1474 1475 1478 1482 1489 1494 1499 1505 1509 1510 1513 1518 1522 1525 1527 1530 1532 1533 1534 1536 1535 1540 1541 1544 1548 1550 1551 1553 1555 1557 1559 1561 1563 1567
1461 1454 1453 1453 1452 1451 1448 1445 1442 1441 1442 1441 1445 1460 1464 1470 1475 1481 1485 1488 1493 1495 1501 1506 1509 1510 1515 1520 1523 1526 1528 1530 1530 1529 1533 1534 1537 1541 1546 1548 1549 1550 1552 1553 1555 1557 1560 1562 1566
1463 1459 1455 1454 1453 1451 1449 1445 1443 1440 1439 1438 1444 1451 1457 1465 1472 1478 1483 1487 1490 1494 1497 1501 1504 1508 1513 1517 1521 1524 1526 1525 1522 1522 1527 1528 1536 1541 1545 1546 1548 1550 1550 1551 1553 1554 1558 1560 1563
1465 1461 1454 1451 1448 1445 1442 1442 1441 1439 1437 1435 1439 1446 1450 1459 1466 1473 1478 1483 1487 1490 1495 1496 1499 1504 1509 1514 1517 1520 1522 1521 1519 1530 1520 1538 1532 1538 1542 1545 1547 1548 1547 1549 1551 1553 1555 1556 1559
1469 1464 1465 1451 1444 1438 1435 1445 1432 1432 1433 1433 1439 1442 1445 1452 1459 1465 1472 1479 1484 1487 1491 1495 1495 1498 1503 1508 1512 1515 1518 1519 1517 1527 1526 1530 1530 1534 1538 1542 1543 1546 1546 1547 1550 1551 1554 1554 1557
1467 1472 1461 1448 1436 1431 1431 1433 1422 1426 1427 1429 1435 1435 1440 1443 1450 1456 1462 1470 1478 1483 1487 1491 1494 1495 1497 1501 1506 1511 1514 1516 1518 1519 1522 1522 1527 1532 1536 1538 1541 1544 1544 1545 1547 1551 1553 1552 1553
1471 1460 1448 1446 1433 1427 1427 1427 1420 1424 1426 1424 1427 1431 1435 1438 1442 1446 1453 1461 1470 1477 1482 1487 1490 1492 1495 1499 1503 1506 1510 1512 1515 1518 1520 1523 1526 1530 1533 1535 1537 1539 1541 1541 1543 1547 1549 1550 1551
1455 1454 1452 1442 1435 1435 1433 1426 1421 1418 1419 1421 1422 1425 1428 1432 1435 1437 1443 1452 1462 1469 1475 1480 1484 1487 1490 1493 1497 1501 1504 1508 1510 1514 1517 1520 1523 1526 1530 1531 1532 1533 1533 1536 1540 1544 1545 1546 1549
1451 1453 1449 1437 1431 1433 1432 1430 1422 1418 1418 1419 1420 1421 1423 1427 1430 1431 1435 1443 1451 1459 1465 1472 1478 1482 1484 1488 1493 1498 1502 1505 1508 1510 1514 1515 1518 1521 1527 1526 1529 1529 1531 1536 1537 1539 1541 1541 1544
1446 1448 1444 1442 1432 1429 1431 1429 1423 1416 1415 1415 1416 1416 1417 1422 1423 1424 1426 1433 1443 1450 1454 1462 1470 1476 1479 1485 1490 1495 1500 1504 1505 1507 1510 1511 1514 1515 1518 1521 1523 1526 1528 1529 1532 1535 1537 1539 1540
1451 1432 1434 1435 1439 1448 1426 1441 1418 1412 1409 1407 1407 1408 1408 1411 1414 1415 1418 1427 1434 1440 1448 1455 1463 1469 1474 1480 1485 1488 1491 1495 1499 1502 1504 1507 1510 1513 1515 1517 1521 1522 1524 1526 1528 1528 1531 1535 1534
1445 1435 1436 1436 1439 1436 1432 1437 1418 1412 1413 1407 1406 1401 1399 1402 1404 1407 1411 1417 1425 1434 1440 1448 1457 1463 1467 1473 1479 1483 1487 1492 1496 1498 1501 1504 1505 1509 1513 1514 1516 1519 1518 1522 1522 1522 1525 1527 1530
1437 1438 1436 1431 1429 1445 1421 1435 1433 1428 1422 1417 1414 1405 1402 1397 1395 1397 1403 1413 1422 1432 1438 1444 1450 1456 1462 1467 1474 1478 1482 1487 1492 1495 1498 1501 1502 1504 1507 1509 1508 1506 1507 1517 1517 1517 1518 1522 1524
1434 1439 1454 1453 1442 1439 1413 1427 1422 1412 1410 1415 1414 1409 1403 1394 1391 1385 1396 1405 1415 1425 1432 1439 1444 1450 1456 1461 1467 1472 1477 1483 1488 1491 1495 1496 1498 1499 1502 1502 1504 1505 1508 1511 1511 1512 1513 1517 1518
1439 1439 1455 1471 1457 1440 1414 1441 1422 1406 1407 1406 1407 1413 1411 1390 1391 1383 1390 1398 1408 1418 1427 1433 1438 1442 1448 1455 1461 1468 1473 1478 1483 1487 1489 1491 1494 1495 1497 1497 1499 1501 1503 1505 1506 1507 1510 1512 1512
1435 1440 1422 1435 1430 1433 1423 1423 1411 1405 1405 1411 1407 1408 1417 1402 1396 1392 1385 1392 1400 1409 1418 1424 1430 1435 1442 1448 1455 1461 1465 1470 1475 1481 1483 1486 1488 1490 1491 1492 1494 1496 1498 1499 1501 1503 1505 1507 1508
1426 1422 1440 1430 1455 1454 1428 1440 1417 1417 1418 1414 1415 1416 1413 1407 1404 1408 1405 1385 1398 1402 1409 1418 1423 1426 1433 1440 1447 1451 1457 1461 1468 1475 1478 1482 1485 1486 1486 1489 1491 1494 1496 1497 1496 1498 1501 1502 1503
1430 1431 1429 1436 1448 1460 1449 1436 1429 1426 1432 1442 1445 1441 1434 1410 1402 1416 1403 1402 1403 1402 1404 1410 1418 1422 1426 1432 1438 1445 1449 1456 1463 1469 1472 1477 1479 1481 1482 1484 1487 1489 1491 1493 1493 1493 1495 1497 1498
1427 1440 1440 1456 1468 1449 1462 1444 1425 1417 1432 1448 1450 1445 1456 1452 1432 1406 1400 1401 1403 1402 1401 1402 1409 1412 1418 1425 1431 1438 1447 1453 1458 1464 1468 1472 1475 1479 1481 1481 1483 1485 1487 1489 1490 1490 1488 1490 1494
Wind_Speed
7 4 3 6 4 7 17 20 17 17 15 14 11 12 12 24 10 5 23 23 25 25 27 25 21 18 17 15 14 14 13 13 13 12 10 11 11 11 11 10 10 9 10 12 11 11 10 7 8
5 4 8 9 6 7 13 17 15 11 9 8 14 11 13 19 17 24 21 25 25 25 25 24 21 19 16 15 13 13 13 13 13 11 10 11 10 10 10 10 10 10 11 9 11 11 9 9 10
10 7 11 5 5 12 12 12 12 13 14 15 16 17 18 14 19 16 24 25 24 22 22 22 22 19 17 15 13 12 12 12 12 11 10 10 10 10 10 9 10 9 10 9 10 10 9 9 9
6 10 12 7 10 14 15 10 16 17 18 10 17 13 17 14 15 22 23 24 22 21 21 20 21 19 16 15 13 12 12 12 12 12 11 11 10 10 9 9 8 8 9 8 9 9 8 11 10
9 11 10 6 6 15 16 9 13 15 18 13 20 16 17 15 18 23 23 20 22 26 20 15 17 18 17 15 13 12 10 11 11 11 11 11 10 9 9 8 8 8 8 10 8 10 11 13 11
11 11 6 10 5 16 9 10 19 17 17 12 17 20 16 14 18 20 21 17 26 28 21 13 17 17 16 15 12 11 10 10 12 12 10 11 10 9 9 8 8 8 8 11 11 10 10 10 10
16 6 4 21 19 7 11 5 7 14 17 15 10 18 15 16 18 20 20 17 22 21 17 19 20 19 17 16 14 12 11 10 11 11 11 10 9 10 10 9 9 9 9 9 10 10 10 12 13
22 14 5 11 20 13 3 14 10 12 13 13 12 9 19 23 21 22 20 18 21 25 16 17 20 20 19 18 16 13 11 11 11 11 11 10 9 11 10 9 9 8 8 11 8 11 11 14 12
23 15 9 6 15 24 17 9 10 7 16 9 4 15 27 30 27 23 23 21 18 17 16 14 16 18 17 16 16 15 13 11 11 12 12 11 10 9 9 8 8 8 8 11 10 11 12 13 8
16 15 15 22 26 15 23 9 10 9 20 16 11 17 28 33 33 29 26 26 23 21 20 20 15 17 17 13 15 16 15 14 12 11 11 11 13 10 5 8 9 8 9 12 13 12 12 12 9
26 17 20 23 54 20 15 11 10 14 6 34 26 11 27 30 33 32 28 26 27 24 20 22 20 16 16 19 15 14 12 11 8 11 11 14 12 14 10 11 7 10 11 11 16 15 15 13 11
21 24 23 21 25 27 20 20 13 14 16 8 23 36 28 27 27 31 31 30 28 27 24 21 24 21 14 21 16 11 13 13 13 13 12 13 10 11 10 9 6 5 9 9 6 12 14 12 17
22 21 24 24 24 23 23 21 17 16 15 6 26 36 29 24 23 24 25 27 28 30 28 25 26 25 18 24 18 16 16 15 18 19 16 14 8 8 13 12 12 10 7 16 17 12 5 10 12
26 28 27 27 27 26 23 23 22 22 18 6 9 27 25 22 23 24 26 28 30 30 31 29 29 25 21 26 22 18 22 20 19 22 19 24 20 16 11 11 8 10 14 15 19 20 19 13 12
27 23 20 21 24 23 26 21 22 26 22 18 15 13 22 23 25 27 28 29 31 32 33 33 33 32 29 29 25 25 21 18 21 17 16 19 21 15 17 17 16 13 13 17 20 21 21 21 16
23 25 21 22 23 25 22 19 20 26 21 18 5 19 20 24 26 30 31 30 31 33 34 34 35 34 32 33 31 28 26 26 16 21 9 18 17 21 21 18 13 10 15 15 16 19 24 19 17
19 21 24 24 22 22 20 19 17 19 18 14 36 19 20 26 29 33 35 35 33 35 36 36 33 32 30 32 31 29 26 24 20 15 21 15 18 25 19 17 14 12 16 14 13 14 18 18 18
20 20 21 23 21 23 18 19 18 16 24 25 15 16 17 20 27 34 38 35 35 36 38 39 37 35 31 30 30 26 26 26 22 20 20 21 22 19 20 21 18 15 18 19 15 15 16 20 16
23 25 26 23 22 23 24 24 19 18 18 21 22 20 21 24 21 36 40 39 38 39 41 41 41 38 35 34 34 29 29 27 26 24 21 24 23 21 20 22 22 19 18 16 20 17 18 17 20
20 23 24 25 22 21 22 24 24 22 21 23 26 25 22 24 28 25 42 42 44 44 44 44 44 41 39 36 32 31 27 27 26 24 24 24 24 23 18 23 23 19 19 21 19 21 19 16 14
19 17 20 21 20 21 22 25 22 24 25 27 32 32 23 26 33 30 46 47 46 46 47 45 46 44 42 37 32 28 26 24 24 25 24 26 25 23 19 20 23 22 22 22 27 24 24 24 17
20 18 18 18 18 18 19 18 16 19 20 22 29 35 36 31 33 34 48 46 47 48 48 46 44 46 44 39 36 34 33 32 30 27 27 26 26 25 25 20 21 22 25 24 23 25 27 25 27
18 17 17 18 19 20 22 14 14 16 15 15 24 36 24 28 30 32 46 50 50 46 49 48 45 46 45 43 39 36 35 28 28 25 22 27 23 22 24 25 21 21 23 23 22 22 22 22 22
13 15 15 18 17 14 17 3 9 12 14 15 18 26 41 28 29 34 45 45 44 41 42 46 45 46 45 44 41 38 36 30 27 27 24 22 23 24 23 21 20 27 19 20 22 19 21 20 21
14 14 12 13 12 14 12 7 11 11 16 8 11 32 41 32 22 30 44 45 44 43 41 44 45 46 45 45 46 40 37 33 29 26 24 23 23 22 20 21 20 17 19 21 21 19 18 18 20
14 13 8 17 14 18 17 9 10 12 5 13 19 32 30 27 14 13 44 42 43 43 41 42 46 46 46 44 45 45 38 32 32 26 28 28 22 17 18 18 16 19 19 18 17 18 17 19 21
16 15 18 13 17 15 10 10 18 11 5 2 17 28 33 40 15 13 5 42 44 44 45 45 45 46 45 44 42 46 42 40 36 28 27 25 16 17 14 10 16 14 13 13 15 15 15 18 19
19 14 15 12 14 17 8 9 5 10 14 12 15 18 26 41 39 35 10 5 37 39 44 46 45 47 46 42 45 44 50 44 34 28 28 22 17 17 14 8 10 9 12 15 13 15 17 17 19
10 11 10 7 8 9 15 6 12 20 21 24 23 36 40 28 45 67 7 12 6 23 40 44 44 44 45 43 45 44 46 46 42 32 30 23 25 19 20 13 9 13 14 13 11 12 13 16 16
11 5 8 3 6 9 10 8 14 15 19 16 20 28 14 23 48 20 16 10 9 11 28 43 45 45 44 44 44 44 39 40 38 36 30 29 26 20 20 16 16 17 15 12 12 10 8 10 13
Wind_Direction
244 240 280 274 251 231 64 65 51 50 50 57 47 54 54 55 136 145 136 130 137 145 155 156 155 153 154 154 149 151 151 150 154 149 142 132 135 131 129 124 117 117 129 138 142 143 142 123 127
210 249 269 285 252 98 73 73 71 62 51 79 38 58 82 67 99 121 125 139 136 145 151 157 156 157 154 154 152 146 149 153 156 152 143 139 138 136 134 124 120 122 122 132 143 144 135 127 126
183 238 267 220 280 54 83 84 98 94 70 41 94 54 50 92 119 123 136 138 136 147 148 157 157 158 155 152 150 148 149 153 154 152 154 150 146 138 136 134 128 122 131 126 137 146 146 146 147
233 227 229 245 277 85 83 88 90 76 90 63 59 85 78 89 128 132 140 141 140 143 161 156 158 161 160 156 154 153 153 156 159 157 155 151 153 151 149 145 140 132 137 138 152 158 151 144 142
248 282 302 299 247 101 112 125 108 98 87 78 82 84 91 95 110 134 143 145 151 152 166 161 164 166 165 164 159 155 155 155 150 154 155 151 152 157 157 155 146 137 141 149 131 142 139 148 149
238 37 340 306 334 103 78 134 117 110 114 133 108 106 105 119 129 141 146 149 153 164 171 162 169 171 170 169 168 162 159 161 160 161 157 159 159 158 158 162 153 146 138 143 150 148 152 153 150
254 121 230 306 332 87 113 106 50 107 111 104 139 114 129 141 145 147 150 151 163 151 172 171 171 172 174 174 173 169 165 166 163 162 166 162 161 165 159 165 159 153 151 153 157 159 161 156 149
257 292 15 271 324 283 35 98 115 70 89 123 158 130 152 152 154 154 156 160 153 154 164 184 174 172 176 177 177 176 169 170 168 164 168 164 172 168 167 167 171 165 161 167 169 164 162 156 153
268 273 78 343 326 336 327 13 50 143 143 135 108 132 154 153 154 159 161 166 166 161 155 164 183 176 177 181 180 176 176 180 181 175 180 179 171 167 165 176 167 181 170 176 171 173 178 177 168
258 272 170 162 241 285 295 31 319 325 140 140 121 132 154 155 158 164 171 170 177 176 166 173 190 189 174 181 190 185 185 188 186 185 184 172 169 170 156 188 193 199 190 184 182 183 179 178 159
276 268 295 199 201 238 325 332 348 321 2 125 135 262 166 166 164 167 173 179 177 180 180 178 193 193 189 178 208 199 189 190 191 200 200 197 199 182 185 200 211 221 202 194 191 190 189 180 168
273 277 275 293 303 312 316 312 320 294 319 147 99 214 169 173 174 174 175 178 179 180 184 182 193 193 188 179 207 183 184 202 211 211 199 200 213 164 187 225 226 223 208 180 210 202 196 183 184
284 289 295 295 296 296 295 294 298 287 292 356 155 183 166 174 179 182 182 181 182 182 182 185 190 201 201 178 201 192 193 202 206 210 202 182 200 205 202 232 214 248 232 201 201 206 192 189 213
296 302 298 296 293 293 291 290 283 280 269 266 150 154 166 177 182 186 186 186 186 188 184 186 193 202 198 180 193 201 200 217 202 219 205 179 184 205 193 229 209 239 244 211 199 192 205 211 213
280 280 289 284 280 273 266 264 259 263 263 262 167 183 166 180 188 190 191 192 189 192 190 189 197 203 201 195 193 199 200 203 214 210 223 195 182 206 206 215 224 234 245 241 212 205 194 199 203
283 282 281 277 274 274 275 257 262 256 251 253 311 176 183 186 195 191 193 194 194 194 193 193 198 205 202 201 200 203 198 202 214 219 213 206 206 211 211 215 231 227 236 230 226 204 206 200 214
264 265 267 272 269 271 277 277 259 256 256 198 220 193 189 192 197 194 190 192 196 195 195 195 196 202 200 200 201 202 201 200 200 225 222 243 246 223 218 223 224 230 219 223 222 227 214 206 206
276 282 290 296 302 304 279 263 267 248 264 267 249 223 222 227 204 189 187 189 194 195 201 200 200 200 205 201 200 205 200 206 203 208 231 226 241 243 232 225 224 233 226 223 230 237 232 220 216
268 273 275 276 285 286 292 296 294 290 256 247 256 254 226 247 247 191 186 189 189 193 201 205 203 201 204 201 199 199 199 208 205 203 216 229 238 245 236 229 227 233 210 214 231 233 229 216 221
281 281 282 283 278 281 278 277 282 279 268 262 263 265 260 262 255 229 181 184 188 191 201 208 209 205 206 204 203 196 205 208 211 202 214 223 234 248 245 234 224 229 221 219 224 223 229 237 225
274 274 289 289 289 276 280 278 274 271 266 262 269 266 256 248 259 242 177 182 184 193 202 209 212 209 209 205 203 196 203 207 215 209 215 223 230 241 244 235 226 229 232 227 221 225 225 229 226
279 282 282 294 299 291 297 291 272 269 262 250 243 242 241 241 237 245 178 179 184 196 202 210 214 212 210 205 201 196 197 202 210 213 216 223 232 244 247 243 236 223 229 229 227 226 235 238 232
299 304 302 295 286 284 281 273 283 328 306 322 335 316 223 248 234 231 177 184 189 189 200 207 215 212 211 208 203 203 201 205 202 217 212 220 229 237 238 241 247 247 235 233 232 236 238 237 241
301 295 286 268 259 260 269 311 304 298 288 331 308 313 292 247 249 221 181 184 183 189 194 200 214 216 211 211 203 208 208 200 205 207 215 216 230 242 246 243 252 250 243 238 237 240 241 244 248
252 263 272 285 292 293 347 279 299 235 267 298 285 291 305 285 280 233 170 174 181 189 197 200 211 216 213 216 209 209 215 203 207 211 211 218 230 244 249 242 246 246 234 241 242 242 248 243 240
298 306 290 291 304 310 317 308 310 332 165 243 259 302 286 305 352 134 165 170 181 190 195 204 207 218 217 214 214 209 214 215 201 210 215 223 237 246 258 247 227 232 230 232 236 245 242 240 245
279 268 277 288 281 286 331 340 303 330 291 194 288 295 327 357 359 20 196 185 185 189 195 205 209 214 219 214 216 212 214 216 211 204 225 231 219 237 257 222 213 208 217 223 233 241 246 244 249
259 285 290 285 299 289 268 256 266 5 2 319 333 352 355 333 328 333 316 206 186 193 197 202 209 215 218 218 215 216 211 217 209 208 218 217 217 211 230 231 212 213 228 238 239 242 244 247 249
322 273 308 337 327 307 312 21 39 15 5 58 42 20 16 340 301 293 339 349 287 203 196 200 203 212 214 220 214 215 216 214 210 208 218 208 215 206 208 209 199 217 239 250 238 238 244 248 251
325 42 359 299 285 306 302 293 34 32 17 353 95 64 316 237 261 350 33 26 348 290 213 195 200 209 219 218 210 212 214 211 213 205 211 211 222 212 208 203 205 206 223 239 253 252 235 235 239